Regional Weather Roundup
Issued by NWS

Home | Current Version | Previous Version | Graphics & Text | Print | Product List | Glossary On
Versions: 1 2 3 4 5 6 7 8 9 10 11 12 13 14 15 16 17 18 19 20 21 22 23 24 25 26 27 28 29 30 31 32 33 34 35 36 37 38 39 40 41 42 43 44 45 46 47 48 49 50
539
ASUS43 KDMX 031501
RWRIA

WEATHER ROUNDUP FOR IOWA
NATIONAL WEATHER SERVICE DES MOINES IA
900 AM CST SAT DEC 03 2016

NOTE: "FAIR" INDICATES FEW OR NO CLOUDS BELOW 12,000 FEET WITH NO
SIGNIFICANT WEATHER AND/OR OBSTRUCTIONS TO VISIBILITY.

* - THESE STATIONS ARE NOT NWS STATIONS...THUS NOT UNDER NWS
QUALITY CONTROL.  THEY ALSO DO NOT REPORT WEATHER SUCH
AS PRECIPITATION OR FOG.

IAZ001>003-012>014-020>022-031>034-043>046-031600-
   NORTHWEST IOWA

CITY           SKY/WX    TMP DP  RH WIND       PRES   REMARKS
CARROLL *      SUNNY     32  32 100 S8        30.29R WCI  25
CHEROKEE *     SUNNY     30  29  99 CALM      30.26S
DENISON *      SUNNY     28  27  93 CALM      30.26R
LE MARS *      CLOUDY    30  28  93 SE5       30.24F WCI  25
ORANGE CITY *  SUNNY     30  28  93 CALM      30.23F
SHELDON *      SUNNY     30  30 100 SE7       30.22F WCI  23
SIOUX CITY     CLOUDY    29  26  89 SE7       30.26F WCI  22
SPENCER        SUNNY     31  28  89 VRB6      30.25F WCI  25
STORM LAKE *   SUNNY     32  28  86 S7        30.25F WCI  26
$$

IAZ055>058-069>071-079>083-090>094-031600-
   SOUTHWEST IOWA

CITY           SKY/WX    TMP DP  RH WIND       PRES   REMARKS
ATLANTIC *     MOSUNNY   27  27 100 CALM      30.28F FOG
AUDUBON *      CLOUDY    27  25  93 CALM      30.28F FOG
CLARINDA *       N/A     27  27 100 CALM      30.31F
COUNCIL BLFS * CLOUDY    28  28 100 SE6       30.26F WCI  22
CRESTON *      MOSUNNY   34  32  93 E6        30.30F WCI  29
HARLAN  *      SUNNY     28  28 100 CALM      30.31F
LAMONI         MOSUNNY   28  26  92 E5        30.31R WCI  23
RED OAK *      MOSUNNY   30  28  93 CALM      30.30R
SHENANDOAH *   CLOUDY    27  27 100 CALM      30.30S
$$

IAZ047>049-059>061-072>074-084-031600-
   CENTRAL IOWA

CITY           SKY/WX    TMP DP  RH WIND       PRES   REMARKS
AMES           CLOUDY    34  33  96 S5        30.30F WCI  30
ANKENY *       CLOUDY    36  32  87 SE5       30.32S WCI  32
BOONE *        SUNNY     34  32  93 S5        30.29R WCI  30
CHARITON *       N/A     30  30 100 CALM      30.31S FOG
DES MOINES     PTSUNNY   37  30  75 S5        30.31S WCI  33
GRINNELL*      CLOUDY    34  31  89 S5        30.31S WCI  30
KNOXVILLE *    CLOUDY    36  32  87 CALM      30.30F
MARSHALLTOWN   CLOUDY    34  30  85 CALM      30.30F
NEWTON *       CLOUDY    34  32  93 S7        30.31S WCI  28
PELLA *        PTSUNNY   36  32  86 CALM      30.33F
PERRY *          N/A     31  30  99 S3        30.30S
$$

IAZ004>006-015-016-023>025-035-036-031600-
   NORTH CENTRAL IOWA

CITY           SKY/WX    TMP DP  RH WIND       PRES   REMARKS
ALGONA *       PTSUNNY   32  27  80 E8        30.26F WCI  25
CLARION *      PTSUNNY   34  32  93 N6        30.27F WCI  29
ESTHERVILLE    PTSUNNY   28  24  85 SE7       30.27F WCI  21
FORT DODGE *   SUNNY     34  28  80 CALM      30.27F
MASON CITY     CLOUDY    30  22  72 N5        30.30F WCI  25
WEBSTER CITY * SUNNY     34  32  93 CALM      30.26F
IOWA FALLS *     N/A     33  31  92 CALM      30.29F
$$

IAZ007>011-017>019-026>030-037>042-050>054-066-031600-
   NORTHEAST IOWA

CITY           SKY/WX    TMP DP  RH WIND       PRES   REMARKS
CEDAR RAPIDS   CLOUDY    32  27  81 S7        30.31F WCI  26
CHARLES CITY * CLOUDY    32  28  86 N3        30.30F
CLINTON *      CLOUDY    32  26  78 N10       30.35F WCI  24
DECORAH *      CLOUDY    30  27  86 CALM      30.29F
DUBUQUE        CLOUDY    30  23  75 NE5       30.31F WCI  25
MONTICELLO *   CLOUDY    32  25  74 CALM      30.32F
OELWEIN *      CLOUDY    30  27  86 CALM      30.31F
WATERLOO       PTSUNNY   33  25  72 CALM      30.30F
$$

IAZ064-065-067-068-078-031600-
   EAST CENTRAL IOWA

CITY           SKY/WX    TMP DP  RH WIND       PRES   REMARKS
DAVENPORT      CLOUDY    33  24  69 N6        30.34F WCI  28
IOWA CITY      CLOUDY    35  26  69 CALM      30.35S
MUSCATINE *    CLOUDY    36  25  64 N6        30.36R WCI  31
QUAD CITIES    CLOUDY    35  23  61 N8        30.34F WCI  29
$$

IAZ062-063-075>077-085>089-095>099-031600-
   SOUTHEAST IOWA

CITY           SKY/WX    TMP DP  RH WIND       PRES   REMARKS
BURLINGTON     CLOUDY    35  28  75 E6        30.35R WCI  30
FAIRFIELD *    CLOUDY    34  28  80 E8        30.34R WCI  27
FORT MADISON * CLOUDY    36  28  75 E3        30.36R
KEOKUK *       CLOUDY    36  28  75 E10       30.34S WCI  28
OSKALOOSA *    CLOUDY    34  30  86 SE5       30.33S WCI  30
CENTERVILLE *    N/A     30  30 100 E6        30.33S WCI  24
OTTUMWA        CLOUDY    35  29  78 SE6       30.32R WCI  30
WASHINGTON *   CLOUDY    34  30  86 CALM      30.36R
$$

ABBREVIATIONS USED IN REMARKS
   TC - TEMPERATURES IN CELSIUS
  WCI - WIND CHILL INDEX
   HX - HEAT INDEX
  VSB - VISIBILITY
$$





USA.gov is the U.S. government's official web portal to all federal, state and local government web resources and services.